Notices

What's New in latest Release from April 7th, 2021:

- Updated Glossary, including Speed of Maximum Gust, and Total Hourly Precipitation

- Updated national and regional climate services offices contacts and prices information

- Addition of station inventory lists for 1981-2010, 1971-2000, and 1961-1990 Normals.

If you haven't already, please take our survey and provide feedback about our website: https://eccc.sondage-survey.ca/f/LanguageSelection.aspx?s=442ca660-fcf1-47c0-95a9-59707d6fd709

Hourly Data Report for November 23, 2016

CARBERRY CS
MANITOBA

49°54'20.900" N
99°21'26.800" W
383.50 m
5010547
71170
WZE

Download Data

Hourly Data (November 2016)
Hourly Data Report for November 23, 2016
TIME
LST
Temp Definition
°C
Dew Point Definition
°C
Rel Hum Definition
%
Precip. Amount Definition
mm

Wind Dir Definition
10's deg

Wind Spd Definition
km/h
Visibility Definition
km
Stn Press Definition
kPa
Hmdx Definition


Wind Chill Definition


Weather Definition


00:00 -0.5 -2.7 85 0.0 33 3   97.33   -1 LegendNANA
01:00 -0.1 -2.4 84 0.0 34 6   97.33   -2 LegendNANA
02:00 -0.3 -2.5 85 0.0 33 6   97.34   -2 LegendNANA
03:00 -0.4 -2.4 87 0.0 31 5   97.39   -2 LegendNANA
04:00 -0.2 -2.1 87 0.0 33 9   97.40   -3 LegendNANA
05:00 -0.1 -1.6 89 0.0 36 15   97.41   -5 LegendNANA
06:00 -0.4 -1.3 93 0.0 35 15   97.42   -5 LegendNANA
07:00 -0.3 -2.0 88 0.0 34 13   97.47   -4 LegendNANA
08:00 -0.4 -2.6 86 0.0 36 13   97.51   -5 LegendNANA
09:00 -0.4 -2.6 86 0.0 36 11   97.52   -4 LegendNANA
10:00 -0.2 -2.7 83 0.0 1 17   97.52   -5 LegendNANA
11:00 0.3 -2.5 82 0.0 36 13   97.50     LegendNANA
12:00 0.5 -2.6 80 0.0 36 12   97.47     LegendNANA
13:00 0.5 -2.6 80 0.0 36 12   97.45     LegendNANA
14:00 0.6 -2.4 80 0.0 1 11   97.44     LegendNANA
15:00 0.3 -1.9 85 0.0 1 13   97.46     LegendNANA
16:00 -0.3 -1.4 93 0.0 3 12   97.49   -4 LegendNANA
17:00 -0.5 -0.9 97 0.0 2 11   97.46   -4 LegendNANA
18:00 -0.6 -1.0 97 0.0 2 9   97.49   -4 LegendNANA
19:00 -0.7 -1.0 98 0.0 2 11   97.48   -4 LegendNANA
20:00 -0.7 -1.0 98 0.0 3 10   97.47   -4 LegendNANA
21:00 -0.7 -1.0 98 0.0 2 9   97.47   -4 LegendNANA
22:00 -0.6 -0.9 98 0.0 1 7   97.45   -3 LegendNANA
23:00 -0.6 -0.9 98 0.0 2 6   97.47   -3 LegendNANA

Notes on Data Quality.

Legend

  • E = Estimated
  • M = Missing
  • NA = Not Available*
  • [empty] = Indicates an unobserved value
Date modified: